GW4081 Weather Reports


time (UTC)temp
F
wind
direction
speed
knots
gust
knots
rain 1hr
in
rain 24hr
in
rain mn
in
humidity
%
barometer
mb
20260906205604 104 169 4.3 10.4 0.00 0.00 0.00 35 1012.2
20260906205104 103 174 7.0 13.9 0.00 0.00 0.00 35 1012.3
20260906204104 103 173 7.8 13.9 0.00 0.00 0.00 36 1012.4
20260906203604 103 174 5.2 10.4 0.00 0.00 0.00 36 1012.5
20260906203104 104 192 2.6 10.4 0.00 0.00 0.00 35 1012.5
20260906202604 104 119 4.3 7.8 0.00 0.00 0.00 35 1012.6
20260906202105 103 221 2.6 7.8 0.00 0.00 0.00 36 1012.6
20260906201104 102 118 6.1 11.3 0.00 0.00 0.00 36 1012.7
20260906200604 102 215 3.5 13.9 0.00 0.00 0.00 37 1012.8
20260906200104 103 139 9.6 13.9 0.00 0.00 0.00 37 1012.9
20260906195605 103 121 4.3 13.0 0.00 0.00 0.00 37 1013.0
20260906195105 103 193 5.2 7.0 0.00 0.00 0.00 35 1013.0
20260906194604 102 144 3.5 8.7 0.00 0.00 0.00 39 1013.1
20260906194104 101 53 4.3 13.0 0.00 0.00 0.00 40 1013.3
20260906193604 102 134 7.0 13.0 0.00 0.00 0.00 39 1013.3
20260906193104 102 90 4.3 12.2 0.00 0.00 0.00 38 1013.4
20260906192104 101 173 0.9 8.7 0.00 0.00 0.00 40 1013.5
20260906191604 101 178 2.6 12.2 0.00 0.00 0.00 39 1013.6
20260906191104 101 205 7.8 13.9 0.00 0.00 0.00 39 1013.7
20260906190103 101 152 7.0 11.3 0.00 0.00 0.00 39 1013.8
20260906185604 99 192 3.5 10.4 0.00 0.00 0.00 42 1013.8
20260906185104 100 127 4.3 10.4 0.00 0.00 0.00 41 1013.9
20260906184603 101 183 5.2 8.7 0.00 0.00 0.00 40 1013.9
20260906184104 101 101 3.5 8.7 0.00 0.00 0.00 41 1014.0
20260906182604 99 181 3.5 10.4 0.00 0.00 0.00 41 1014.2
20260906182104 98 178 1.7 7.8 0.00 0.00 0.00 45 1014.3
20260906181604 97 67 0.9 7.8 0.00 0.00 0.00 45 1014.3
20260906181104 97 109 3.5 10.4 0.00 0.00 0.00 44 1014.4
20260906180604 97 145 2.6 10.4 0.00 0.00 0.00 44 1014.4
20260906175604 98 126 4.3 8.7 0.00 0.00 0.00 45 1014.6
20260906175104 98 134 2.6 7.8 0.00 0.00 0.00 45 1014.7
20260906174604 98 170 2.6 10.4 0.00 0.00 0.00 45 1014.8
20260906174103 97 187 1.7 13.9 0.00 0.00 0.00 45 1014.9
20260906173604 98 177 7.8 13.9 0.00 0.00 0.00 44 1015.0
20260906172604 98 125 3.5 7.8 0.00 0.00 0.00 45 1015.2
20260906171604 98 155 1.7 10.4 0.00 0.00 0.00 46 1015.3
20260906171104 98 167 4.3 10.4 0.00 0.00 0.00 45 1015.4
20260906170603 98 158 6.1 10.4 0.00 0.00 0.00 44 1015.5
20260906170105 98 217 0.9 7.0 0.00 0.00 0.00 46 1015.5
20260906165604 98 172 1.7 10.4 0.00 0.00 0.00 45 1015.7
20260906165104 98 150 4.3 10.4 0.00 0.00 0.00 46 1015.7
20260906164604 98 165 5.2 10.4 0.00 0.00 0.00 46 1015.8
20260906164103 98 53 2.6 8.7 0.00 0.00 0.00 47 1015.8
20260906163604 97 77 2.6 8.7 0.00 0.00 0.00 47 1015.9
20260906162604 97 285 2.6 8.7 0.00 0.00 0.00 48 1015.8
20260906162103 97 286 1.7 8.7 0.00 0.00 0.00 48 1015.9
20260906161604 96 217 1.7 7.0 0.00 0.00 0.00 48 1015.9
20260906161104 96 222 2.6 7.0 0.00 0.00 0.00 49 1015.9
20260906160604 95 189 4.3 8.7 0.00 0.00 0.00 49 1015.9
20260906155604 95 226 2.6 8.7 0.00 0.00 0.00 49 1015.7
20260906155103 94 220 4.3 8.7 0.00 0.00 0.00 50 1015.7
20260906154604 94 223 4.3 7.8 0.00 0.00 0.00 50 1015.7
20260906154104 94 181 2.6 7.8 0.00 0.00 0.00 51 1015.7
20260906153603 93 212 4.3 7.8 0.00 0.00 0.00 52 1015.6
20260906153104 93 215 3.5 7.0 0.00 0.00 0.00 53 1015.7
20260906152104 92 234 2.6 7.0 0.00 0.00 0.00 54 1015.7
20260906151604 92 230 4.3 7.0 0.00 0.00 0.00 54 1015.6
20260906151104 92 212 4.3 7.8 0.00 0.00 0.00 54 1015.7
20260906150104 92 211 3.5 7.8 0.00 0.00 0.00 54 1015.6
20260906145604 91 212 4.3 7.0 0.00 0.00 0.00 54 1015.6
20260906145104 91 242 2.6 6.1 0.00 0.00 0.00 55 1015.6
20260906144603 91 226 4.3 7.0 0.00 0.00 0.00 56 1015.6
20260906144104 90 228 3.5 7.0 0.00 0.00 0.00 56 1015.6
20260906143604 90 230 4.3 7.8 0.00 0.00 0.00 57 1015.7
20260906143104 89 236 4.3 8.7 0.00 0.00 0.00 58 1015.6
20260906142604 89 213 5.2 8.7 0.00 0.00 0.00 59 1015.6
20260906141604 88 212 5.2 7.8 0.00 0.00 0.00 60 1015.5
20260906141104 87 205 4.3 7.8 0.00 0.00 0.00 60 1015.6
20260906135604 86 219 5.2 7.8 0.00 0.00 0.00 61 1015.4
20260906135104 86 207 5.2 8.7 0.00 0.00 0.00 61 1015.3
20260906134604 86 222 5.2 8.7 0.00 0.00 0.00 61 1015.3
20260906133604 84 213 4.3 7.0 0.00 0.00 0.00 63 1015.3
20260906133103 83 193 2.6 6.1 0.00 0.00 0.00 64 1015.3
20260906132604 83 205 4.3 6.1 0.00 0.00 0.00 64 1015.3
20260906132104 83 194 4.3 6.1 0.00 0.00 0.00 65 1015.2
20260906131604 83 186 4.3 6.1 0.00 0.00 0.00 66 1015.2
20260906130604 82 194 2.6 5.2 0.00 0.00 0.00 67 1015.0
20260906130104 81 174 2.6 5.2 0.00 0.00 0.00 67 1015.0
20260906125104 81 180 2.6 5.2 0.00 0.00 0.00 68 1014.9
20260906124604 81 177 2.6 5.2 0.00 0.00 0.00 68 1014.9
20260906123604 80 185 2.6 4.3 0.00 0.00 0.00 68 1014.7
20260906122603 80 169 0.9 4.3 0.00 0.00 0.00 69 1014.6
20260906122104 80 198 0.0 1.7 0.00 0.00 0.00 69 1014.6
20260906121604 80 198 0.0 1.7 0.00 0.00 0.00 69 1014.6
20260906121104 80 198 0.0 0.0 0.00 0.00 0.00 69 1014.6
20260906115604 80 198 1.7 4.3 0.00 0.00 0.00 67 1014.5
20260906114103 81 175 3.5 5.2 0.00 0.00 0.00 66 1014.3
20260906113603 81 175 2.6 6.1 0.00 0.00 0.00 66 1014.2
20260906112103 81 165 2.6 5.2 0.00 0.00 0.00 66 1014.0
20260906111604 81 170 2.6 5.2 0.00 0.00 0.00 66 1013.9
20260906111103 81 163 2.6 5.2 0.00 0.00 0.00 66 1013.9
20260906110604 81 150 2.6 4.3 0.00 0.00 0.00 66 1013.9
20260906110104 81 162 2.6 4.3 0.00 0.00 0.00 66 1013.9
20260906105603 81 171 2.6 6.1 0.00 0.00 0.00 66 1013.9
20260906105104 81 164 4.3 6.1 0.00 0.00 0.00 66 1013.9
20260906104604 81 166 3.5 6.1 0.00 0.00 0.00 65 1013.8
20260906104104 81 176 2.6 5.2 0.00 0.00 0.00 65 1013.7
20260906103603 81 162 2.6 5.2 0.00 0.00 0.00 65 1013.7
20260906103103 81 160 2.6 4.3 0.00 0.00 0.00 65 1013.7
20260906102604 81 157 2.6 4.3 0.00 0.00 0.00 65 1013.7
20260906102104 81 186 1.7 2.6 0.00 0.00 0.00 65 1013.7
20260906101603 81 186 0.0 2.6 0.00 0.00 0.00 64 1013.7
20260906101104 81 186 1.7 2.6 0.00 0.00 0.00 64 1013.8
20260906100103 81 173 1.7 4.3 0.00 0.00 0.00 63 1013.6
20260906095604 81 184 1.7 2.6 0.00 0.00 0.00 63 1013.7
20260906095104 81 184 2.6 2.6 0.00 0.00 0.00 63 1013.6
20260906094103 81 198 1.7 2.6 0.00 0.00 0.00 64 1013.6
20260906093603 81 198 2.6 2.6 0.00 0.00 0.00 63 1013.6
20260906093103 82 198 2.6 2.6 0.00 0.00 0.00 63 1013.6
20260906092104 82 178 1.7 2.6 0.00 0.00 0.00 63 1013.8
20260906091604 82 178 0.9 2.6 0.00 0.00 0.00 62 1013.7
20260906091104 82 178 1.7 2.6 0.00 0.00 0.00 62 1013.6
20260906090604 82 178 1.7 2.6 0.00 0.00 0.00 62 1013.5
20260906085604 82 177 1.7 2.6 0.00 0.00 0.00 61 1013.5
20260906084103 82 190 2.6 4.3 0.00 0.00 0.00 62 1013.5
20260906083604 82 197 3.5 5.2 0.00 0.00 0.00 61 1013.4
20260906083104 83 203 2.6 5.2 0.00 0.00 0.00 61 1013.5
20260906082603 83 197 3.5 4.3 0.00 0.00 0.00 61 1013.5
20260906082103 83 194 2.6 4.3 0.00 0.00 0.00 60 1013.4
20260906081603 83 194 2.6 4.3 0.00 0.00 0.00 60 1013.4
20260906081104 83 193 2.6 2.6 0.00 0.00 0.00 60 1013.3
20260906080604 83 198 2.6 4.3 0.00 0.00 0.00 60 1013.4
20260906080104 83 200 2.6 4.3 0.00 0.00 0.00 60 1013.4
20260906075604 83 188 2.6 2.6 0.00 0.00 0.00 60 1013.4
20260906075104 83 188 2.6 2.6 0.00 0.00 0.00 60 1013.4
20260906074604 83 188 1.7 2.6 0.00 0.00 0.00 59 1013.4
20260906073103 84 198 2.6 4.3 0.00 0.00 0.00 59 1013.4
20260906072603 84 192 3.5 4.3 0.00 0.00 0.00 59 1013.5
20260906072103 84 190 2.6 4.3 0.00 0.00 0.00 59 1013.5
20260906070604 84 189 2.6 4.3 0.00 0.00 0.00 59 1013.5
20260906065604 84 180 2.6 5.2 0.00 0.00 0.00 58 1013.5
20260906065104 84 180 2.6 5.2 0.00 0.00 0.00 58 1013.5
20260906064603 84 177 2.6 4.3 0.00 0.00 0.00 58 1013.5
20260906064103 85 187 2.6 4.3 0.00 0.00 0.00 58 1013.4
20260906063603 85 187 2.6 4.3 0.00 0.00 0.00 58 1013.4
20260906063103 85 192 2.6 5.2 0.00 0.00 0.00 57 1013.5
20260906062604 86 197 2.6 5.2 0.00 0.00 0.00 56 1013.5
20260906062103 86 195 3.5 5.2 0.00 0.00 0.00 56 1013.5
20260906061604 86 187 4.3 5.2 0.00 0.00 0.00 56 1013.5
20260906060603 85 176 2.6 5.2 0.00 0.00 0.00 56 1013.6
20260906055603 86 188 2.6 5.2 0.00 0.00 0.00 56 1013.5
20260906055103 86 193 3.5 5.2 0.00 0.00 0.00 56 1013.4
20260906054603 86 191 2.6 5.2 0.00 0.00 0.00 56 1013.5
20260906054103 86 197 2.6 4.3 0.00 0.00 0.00 56 1013.5
20260906053603 86 197 4.3 5.2 0.00 0.00 0.00 56 1013.4
20260906053104 86 199 2.6 5.2 0.00 0.00 0.00 55 1013.4
20260906052603 86 199 2.6 5.2 0.00 0.00 0.00 55 1013.3
20260906052103 86 191 3.5 5.2 0.00 0.00 0.00 55 1013.2
20260906051104 87 189 3.5 5.2 0.00 0.00 0.00 55 1013.2
20260906050604 86 183 3.5 5.2 0.00 0.00 0.00 55 1013.2
20260906050104 86 174 2.6 5.2 0.00 0.00 0.00 55 1013.1
20260906045604 86 195 1.7 4.3 0.00 0.00 0.00 56 1013.1
20260906045104 87 199 1.7 4.3 0.00 0.00 0.00 55 1013.0
20260906044604 87 188 2.6 4.3 0.00 0.00 0.00 55 1013.0
20260906044104 87 180 2.6 4.3 0.00 0.00 0.00 54 1013.0
20260906043604 87 179 2.6 5.2 0.00 0.00 0.00 54 1013.1
20260906043104 87 181 2.6 5.2 0.00 0.00 0.00 54 1013.1
20260906042604 87 182 2.6 5.2 0.00 0.00 0.00 54 1013.1
20260906042104 87 179 4.3 5.2 0.00 0.00 0.00 55 1013.2
20260906041104 87 169 2.6 4.3 0.00 0.00 0.00 56 1013.3
20260906040603 87 175 1.7 4.3 0.00 0.00 0.00 55 1013.3
20260906040103 87 175 1.7 4.3 0.00 0.00 0.00 55 1013.3
20260906035603 88 172 1.7 4.3 0.00 0.00 0.00 54 1013.3
20260906035103 88 182 1.7 4.3 0.00 0.00 0.00 53 1013.2
20260906034604 88 171 2.6 4.3 0.00 0.00 0.00 52 1013.3
20260906034104 89 171 2.6 4.3 0.00 0.00 0.00 52 1013.2
20260906033604 89 171 2.6 4.3 0.00 0.00 0.00 51 1013.1
20260906033104 89 163 2.6 4.3 0.00 0.00 0.00 51 1013.0
20260906032604 89 160 2.6 4.3 0.00 0.00 0.00 51 1013.1
20260906031603 90 178 1.7 4.3 0.00 0.00 0.00 50 1013.0
20260906031103 90 167 2.6 4.3 0.00 0.00 0.00 50 1013.0
20260906030603 90 175 1.7 4.3 0.00 0.00 0.00 49 1013.0
20260906025603 91 171 2.6 6.1 0.00 0.00 0.00 48 1013.0
20260906025104 91 168 3.5 6.1 0.00 0.00 0.00 48 1013.0
20260906024604 91 171 4.3 6.1 0.00 0.00 0.00 48 1012.9
20260906024104 91 174 2.6 5.2 0.00 0.00 0.00 48 1012.8
20260906023604 91 173 3.5 5.2 0.00 0.00 0.00 48 1012.9
20260906023103 91 159 2.6 4.3 0.00 0.00 0.00 49 1012.8
20260906022604 91 165 2.6 4.3 0.00 0.00 0.00 48 1012.7
20260906022104 91 161 2.6 4.3 0.00 0.00 0.00 48 1012.6
20260906021603 91 161 1.7 2.6 0.00 0.00 0.00 48 1012.6
20260906021104 91 161 1.7 2.6 0.00 0.00 0.00 48 1012.5
20260906020603 91 161 1.7 2.6 0.00 0.00 0.00 48 1012.4
20260906020104 91 161 0.9 1.7 0.00 0.00 0.00 48 1012.4
20260906015603 92 161 0.9 2.6 0.00 0.00 0.00 48 1012.5
20260906015103 92 161 1.7 2.6 0.00 0.00 0.00 47 1012.4
20260906014604 93 161 0.9 1.7 0.00 0.00 0.00 46 1012.4
20260906014105 93 161 0.9 1.7 0.00 0.00 0.00 46 1012.3
20260906013605 94 161 0.9 2.6 0.00 0.00 0.00 45 1012.3
20260906013105 94 161 1.7 2.6 0.00 0.00 0.00 45 1012.1
20260906012605 94 161 1.7 4.3 0.00 0.00 0.00 45 1012.1
20260906012105 94 161 2.6 5.2 0.00 0.00 0.00 45 1012.0
20260906011605 94 171 3.5 5.2 0.00 0.00 0.00 44 1011.9
20260906011105 95 176 3.5 5.2 0.00 0.00 0.00 44 1011.9
20260906010605 95 189 3.5 5.2 0.00 0.00 0.00 43 1011.9
20260906005105 96 170 2.6 5.2 0.00 0.00 0.00 42 1011.8
20260906004605 96 178 1.7 6.1 0.00 0.00 0.00 42 1011.8
20260906004105 97 173 4.3 6.1 0.00 0.00 0.00 42 1011.7
20260906003605 97 182 4.3 10.4 0.00 0.00 0.00 41 1011.7
20260906002605 98 182 5.2 8.7 0.00 0.00 0.00 41 1011.7
20260906002105 98 168 5.2 8.7 0.00 0.00 0.00 40 1011.6
20260906001105 98 177 5.2 8.7 0.00 0.00 0.00 40 1011.7
20260906000605 99 170 5.2 8.7 0.00 0.00 0.00 40 1011.6
20260906000105 99 145 5.2 8.7 0.00 0.00 0.00 39 1011.5
20260905235605 99 113 2.6 7.8 0.00 0.00 0.00 38 1011.5
20260905235105 99 123 2.6 10.4 0.00 0.00 0.00 38 1011.5
20260905234605 99 137 5.2 10.4 0.00 0.00 0.00 39 1011.5
20260905234105 99 173 4.3 11.3 0.00 0.00 0.00 39 1011.4
20260905233105 100 186 5.2 10.4 0.00 0.00 0.00 39 1011.3
20260905232605 100 148 7.0 10.4 0.00 0.00 0.00 38 1011.3
20260905232105 100 170 5.2 10.4 0.00 0.00 0.00 38 1011.3
20260905231605 100 167 4.3 10.4 0.00 0.00 0.00 38 1011.3
20260905230604 100 174 3.5 10.4 0.00 0.00 0.00 38 1011.3
20260905230105 100 168 6.1 13.0 0.00 0.00 0.00 38 1011.3
20260905225605 100 174 6.1 14.8 0.00 0.00 0.00 38 1011.3
20260905224605 100 136 5.2 12.2 0.00 0.00 0.00 38 1011.2
20260905223605 100 170 6.1 12.2 0.00 0.00 0.00 38 1011.2
20260905222605 100 129 7.8 13.9 0.00 0.00 0.00 38 1011.3
20260905222105 100 142 8.7 13.9 0.00 0.00 0.00 38 1011.2
20260905221106 101 177 6.1 10.4 0.00 0.00 0.00 37 1011.3
20260905220105 100 164 7.8 13.9 0.00 0.00 0.00 38 1011.4
20260905214605 101 181 7.8 12.2 0.00 0.00 0.00 38 1011.5
20260905214104 101 125 5.2 14.8 0.00 0.00 0.00 38 1011.6
20260905213605 101 139 7.8 14.8 0.00 0.00 0.00 38 1011.6
20260905213105 101 177 9.6 13.9 0.00 0.00 0.00 38 1011.6
20260905212105 101 172 7.0 15.6 0.00 0.00 0.00 37 1011.9
20260905211604 101 193 7.8 14.8 0.00 0.00 0.00 37 1011.9
20260905211104 100 171 7.8 13.0 0.00 0.00 0.00 38 1011.9